Total_Precipitation_Accumulation
0.15 0.17 0.18 0.20 0.22 0.24 0.32 0.30 0.35 0.32 0.34 0.37 0.36 0.36 0.37 0.38 0.38 0.40 0.40 0.40 0.42 0.43 0.51 0.54 0.54 0.51 0.48 0.47 0.53 0.53 0.49 0.49 0.48 0.48 0.52 0.53 0.58 0.65 0.64 0.68 0.94 0.93 0.66 0.33 0.20 0.18 0.20 0.19 0.15 0.19 0.22 0.29 0.36 0.37 0.35 0.26 0.26 0.28 0.28 0.34 0.39 0.45 0.49
0.18 0.18 0.19 0.21 0.22 0.22 0.24 0.32 0.33 0.33 0.37 0.39 0.37 0.37 0.39 0.43 0.47 0.45 0.45 0.43 0.45 0.43 0.45 0.51 0.55 0.52 0.49 0.49 0.58 0.60 0.60 0.57 0.52 0.55 0.55 0.51 0.56 0.62 0.61 0.57 0.74 0.83 0.70 0.53 0.30 0.23 0.19 0.20 0.14 0.19 0.17 0.23 0.27 0.33 0.37 0.37 0.33 0.30 0.30 0.31 0.34 0.40 0.40
0.21 0.21 0.21 0.21 0.20 0.20 0.23 0.24 0.27 0.26 0.32 0.36 0.37 0.37 0.36 0.37 0.40 0.41 0.42 0.42 0.41 0.40 0.41 0.47 0.51 0.52 0.49 0.50 0.61 0.62 0.63 0.60 0.60 0.57 0.55 0.54 0.47 0.48 0.47 0.50 0.61 0.76 0.74 0.56 0.45 0.29 0.26 0.24 0.21 0.21 0.22 0.21 0.26 0.28 0.26 0.36 0.40 0.39 0.38 0.36 0.36 0.38 0.36
0.20 0.21 0.21 0.23 0.23 0.28 0.23 0.24 0.22 0.25 0.28 0.30 0.29 0.33 0.37 0.34 0.33 0.35 0.38 0.41 0.40 0.40 0.44 0.48 0.52 0.52 0.51 0.57 0.62 0.63 0.63 0.66 0.68 0.68 0.65 0.59 0.52 0.49 0.44 0.39 0.42 0.51 0.65 0.58 0.54 0.38 0.32 0.26 0.24 0.22 0.19 0.20 0.22 0.29 0.34 0.35 0.41 0.41 0.42 0.39 0.42 0.38 0.42
0.20 0.22 0.23 0.23 0.22 0.20 0.20 0.21 0.21 0.22 0.23 0.24 0.24 0.27 0.29 0.31 0.33 0.34 0.35 0.36 0.39 0.43 0.46 0.47 0.48 0.47 0.48 0.53 0.64 0.64 0.67 0.68 0.71 0.75 0.76 0.76 0.68 0.66 0.60 0.55 0.53 0.54 0.54 0.67 0.61 0.46 0.31 0.25 0.24 0.24 0.23 0.22 0.27 0.30 0.34 0.37 0.41 0.45 0.49 0.48 0.45 0.42 0.41
0.24 0.24 0.23 0.22 0.22 0.22 0.24 0.22 0.23 0.23 0.27 0.23 0.21 0.21 0.22 0.24 0.25 0.25 0.28 0.31 0.33 0.35 0.39 0.43 0.43 0.42 0.44 0.48 0.56 0.60 0.58 0.66 0.75 0.79 0.78 0.80 0.81 0.82 0.78 0.79 0.77 0.72 0.74 0.73 0.69 0.56 0.43 0.29 0.27 0.27 0.27 0.26 0.29 0.31 0.34 0.41 0.44 0.42 0.49 0.55 0.57 0.55 0.50
0.25 0.24 0.24 0.23 0.23 0.23 0.23 0.22 0.22 0.22 0.23 0.23 0.22 0.24 0.24 0.24 0.24 0.23 0.24 0.24 0.25 0.25 0.27 0.31 0.33 0.35 0.37 0.43 0.47 0.50 0.51 0.53 0.55 0.67 0.73 0.77 0.79 0.79 0.86 0.98 0.99 0.93 0.87 0.85 0.82 0.74 0.54 0.45 0.37 0.29 0.33 0.25 0.23 0.26 0.28 0.35 0.43 0.50 0.47 0.50 0.51 0.53 0.51
0.26 0.24 0.24 0.25 0.24 0.23 0.22 0.23 0.22 0.22 0.24 0.24 0.24 0.25 0.27 0.26 0.30 0.31 0.29 0.25 0.22 0.22 0.25 0.25 0.26 0.27 0.27 0.29 0.31 0.35 0.37 0.41 0.50 0.55 0.65 0.64 0.69 0.77 0.92 1.00 0.98 0.95 0.95 0.96 0.92 0.80 0.67 0.53 0.43 0.34 0.28 0.28 0.30 0.34 0.35 0.31 0.37 0.46 0.46 0.47 0.48 0.47 0.51
0.28 0.28 0.29 0.25 0.25 0.26 0.23 0.25 0.24 0.24 0.29 0.30 0.29 0.32 0.39 0.38 0.40 0.37 0.35 0.33 0.31 0.28 0.26 0.24 0.24 0.23 0.27 0.24 0.24 0.26 0.29 0.34 0.40 0.51 0.62 0.61 0.64 0.76 0.88 0.95 0.96 0.99 1.01 0.99 0.91 0.83 0.63 0.57 0.48 0.41 0.36 0.33 0.35 0.41 0.42 0.32 0.31 0.38 0.35 0.36 0.38 0.44 0.48
0.30 0.32 0.41 0.30 0.28 0.27 0.29 0.28 0.26 0.26 0.37 0.38 0.50 0.62 0.66 0.68 0.65 0.60 0.58 0.55 0.48 0.40 0.34 0.30 0.28 0.25 0.21 0.22 0.24 0.27 0.31 0.37 0.42 0.46 0.53 0.64 0.68 0.75 0.88 0.95 0.99 0.97 0.90 0.91 0.97 0.84 0.69 0.67 0.56 0.43 0.36 0.33 0.29 0.25 0.23 0.25 0.30 0.36 0.33 0.29 0.35 0.37 0.45
0.39 0.37 0.36 0.35 0.36 0.39 0.36 0.35 0.30 0.30 0.48 0.69 0.91 0.95 1.01 0.96 0.85 0.73 0.66 0.59 0.54 0.47 0.37 0.31 0.27 0.26 0.24 0.24 0.26 0.28 0.32 0.38 0.40 0.48 0.54 0.55 0.60 0.74 0.91 1.08 1.14 1.04 0.91 0.93 0.89 0.78 0.66 0.61 0.52 0.39 0.35 0.33 0.29 0.25 0.27 0.29 0.30 0.36 0.37 0.42 0.46 0.51 0.43
0.45 0.38 0.36 0.37 0.37 0.40 0.38 0.39 0.34 0.41 0.70 0.89 1.17 1.44 1.35 1.19 1.04 0.88 0.76 0.66 0.60 0.53 0.46 0.41 0.37 0.34 0.31 0.31 0.31 0.32 0.34 0.40 0.44 0.49 0.51 0.56 0.64 0.73 0.87 1.03 1.03 1.09 1.04 0.91 0.91 0.87 0.73 0.66 0.54 0.37 0.32 0.30 0.31 0.35 0.32 0.33 0.37 0.43 0.48 0.49 0.48 0.43 0.42
0.42 0.42 0.43 0.43 0.49 0.44 0.42 0.42 0.39 0.51 0.80 0.99 1.34 1.67 1.76 1.41 1.17 0.99 0.80 0.66 0.58 0.53 0.47 0.44 0.46 0.43 0.40 0.34 0.31 0.34 0.35 0.37 0.39 0.41 0.46 0.53 0.58 0.62 0.77 1.00 1.25 1.17 0.99 1.08 1.05 1.02 0.82 0.60 0.55 0.54 0.38 0.28 0.32 0.39 0.46 0.42 0.48 0.50 0.51 0.52 0.50 0.42 0.34
0.50 0.49 0.54 0.55 0.57 0.55 0.54 0.51 0.48 0.59 0.93 1.26 1.54 1.90 2.13 1.55 1.30 1.05 0.86 0.70 0.59 0.52 0.46 0.44 0.45 0.46 0.43 0.36 0.34 0.36 0.37 0.38 0.41 0.42 0.45 0.51 0.56 0.59 0.57 0.68 0.74 0.75 0.71 0.81 0.97 1.07 0.99 0.63 0.57 0.49 0.45 0.56 0.48 0.54 0.65 0.66 0.64 0.59 0.60 0.60 0.58 0.43 0.39
0.57 0.58 0.61 0.63 0.72 0.69 0.68 0.58 0.56 0.78 1.15 1.37 1.65 1.94 2.44 1.77 1.45 1.14 0.88 0.69 0.59 0.55 0.51 0.46 0.44 0.43 0.42 0.38 0.38 0.38 0.38 0.41 0.45 0.48 0.53 0.52 0.49 0.45 0.42 0.39 0.39 0.46 0.61 0.70 0.66 0.74 0.76 0.64 0.53 0.47 0.43 0.44 0.54 0.73 0.79 0.74 0.71 0.65 0.67 0.68 0.61 0.59 0.54
0.50 0.52 0.53 0.53 0.57 0.63 0.62 0.50 0.55 0.84 1.13 1.34 1.70 2.20 2.05 1.85 1.41 1.10 0.88 0.70 0.60 0.54 0.49 0.45 0.47 0.50 0.48 0.43 0.40 0.38 0.57 0.53 0.54 0.65 0.68 0.61 0.48 0.40 0.34 0.32 0.30 0.44 0.55 0.50 0.65 0.71 0.68 0.66 0.63 0.81 0.82 0.84 0.87 0.85 0.82 0.82 0.84 0.85 0.93 1.00 1.01 0.83 0.54
0.39 0.42 0.47 0.49 0.50 0.53 0.49 0.45 0.50 0.69 1.01 1.20 1.57 2.31 2.36 1.98 1.43 1.06 0.83 0.65 0.56 0.52 0.48 0.45 0.45 0.48 0.50 0.46 0.41 0.40 0.65 0.83 0.93 0.97 0.92 0.81 0.65 0.50 0.43 0.36 0.25 0.44 0.87 1.34 1.70 1.95 1.73 1.62 1.66 1.82 2.05 2.05 2.00 1.44 1.34 1.31 1.38 1.21 0.90 0.94 0.97 0.70 0.46
0.42 0.42 0.43 0.48 0.48 0.47 0.50 0.45 0.44 0.59 0.82 1.05 1.43 1.93 1.95 1.82 1.54 1.11 0.86 0.73 0.61 0.56 0.54 0.45 0.48 0.47 0.50 0.50 0.43 0.57 0.81 1.11 1.18 1.39 1.19 1.01 0.88 0.72 0.58 0.39 0.24 0.21 0.27 0.69 1.22 1.54 1.64 1.84 1.62 1.57 1.58 1.81 1.78 1.65 1.20 1.42 1.58 1.05 0.69 0.77 0.72 0.68 0.41
0.43 0.41 0.42 0.43 0.44 0.47 0.51 0.50 0.45 0.51 0.76 1.04 1.49 1.75 1.82 1.73 1.48 1.24 0.96 0.82 0.73 0.59 0.50 0.43 0.41 0.48 0.56 0.52 0.52 0.86 1.11 1.62 1.41 1.47 1.24 0.93 0.86 0.84 0.71 0.46 0.31 0.26 0.28 0.30 0.38 0.48 0.57 0.69 0.88 0.83 0.85 0.74 0.85 0.97 1.12 1.06 1.09 0.92 0.87 0.90 0.72 0.60 0.53
0.36 0.37 0.39 0.41 0.49 0.51 0.51 0.51 0.49 0.53 0.68 1.05 1.41 1.55 1.56 1.51 1.37 1.26 1.07 0.93 0.79 0.77 0.67 0.54 0.48 0.44 0.50 0.79 1.08 1.08 1.45 1.64 2.19 1.65 1.54 1.20 1.10 0.97 0.69 0.40 0.31 0.33 0.36 0.36 0.36 0.35 0.31 0.37 0.42 0.54 0.67 0.69 0.63 0.59 0.66 0.86 0.72 0.76 0.81 0.83 0.76 0.62 0.56
0.37 0.41 0.45 0.44 0.46 0.50 0.52 0.52 0.50 0.45 0.61 1.00 1.16 1.18 1.61 1.48 1.26 1.03 0.94 0.91 0.86 0.73 0.64 0.58 0.51 0.47 0.44 0.56 0.84 1.09 1.42 1.67 2.13 2.13 1.60 1.46 1.27 0.92 0.65 0.55 0.62 0.54 0.44 0.48 0.42 0.37 0.34 0.34 0.37 0.48 0.58 0.68 0.62 0.58 0.58 0.69 0.52 0.55 0.51 0.65 0.75 0.72 0.64
0.46 0.45 0.39 0.36 0.40 0.46 0.47 0.45 0.44 0.49 0.56 0.82 1.05 1.19 1.43 1.41 1.25 0.98 1.02 1.04 0.82 0.63 0.54 0.46 0.44 0.46 0.47 0.53 0.77 1.17 1.71 1.89 2.17 2.35 1.63 1.42 1.60 1.59 1.35 0.81 0.70 0.60 0.57 0.51 0.48 0.45 0.42 0.40 0.40 0.42 0.47 0.59 0.62 0.57 0.66 0.58 0.51 0.42 0.37 0.34 0.38 0.48 0.56
0.47 0.43 0.40 0.39 0.42 0.44 0.43 0.42 0.42 0.54 0.50 0.61 0.89 1.06 1.25 1.40 1.43 1.33 1.03 0.97 0.85 0.64 0.51 0.43 0.43 0.43 0.50 0.66 1.19 1.56 1.88 1.97 2.13 1.89 1.76 1.88 1.69 1.57 1.32 1.21 1.16 0.97 0.83 0.69 0.56 0.51 0.54 0.46 0.39 0.41 0.40 0.39 0.48 0.48 0.41 0.46 0.45 0.43 0.41 0.41 0.34 0.31 0.33
0.48 0.40 0.42 0.44 0.45 0.43 0.41 0.41 0.47 0.49 0.45 0.50 0.66 0.95 1.23 1.25 1.39 1.33 1.04 0.90 0.77 0.63 0.57 0.52 0.49 0.54 0.73 1.10 1.18 1.34 1.59 1.80 1.62 1.58 1.81 1.88 1.64 1.22 1.17 1.25 1.31 1.24 1.11 0.89 0.72 0.63 0.53 0.44 0.32 0.31 0.31 0.32 0.29 0.38 0.44 0.45 0.47 0.42 0.41 0.41 0.36 0.30 0.29
0.40 0.43 0.43 0.43 0.44 0.45 0.45 0.45 0.48 0.45 0.45 0.48 0.53 0.66 0.85 0.97 1.09 1.03 0.92 0.81 0.66 0.61 0.59 0.57 0.66 0.81 0.93 1.05 1.16 1.23 1.14 1.17 1.07 1.10 1.38 1.25 1.23 1.25 1.20 1.27 1.14 1.00 0.95 1.04 0.95 0.71 0.50 0.34 0.27 0.25 0.24 0.24 0.29 0.35 0.48 0.54 0.56 0.54 0.46 0.44 0.41 0.39 0.31
0.45 0.43 0.41 0.43 0.42 0.47 0.50 0.54 0.48 0.43 0.45 0.50 0.53 0.56 0.64 0.75 0.73 0.74 0.69 0.73 0.62 0.49 0.45 0.49 0.65 0.55 0.58 0.65 0.72 0.82 0.95 1.16 0.89 0.78 0.77 0.90 1.02 1.03 1.14 1.15 1.01 0.81 0.77 0.76 0.62 0.55 0.50 0.38 0.28 0.31 0.34 0.30 0.34 0.42 0.49 0.55 0.60 0.66 0.62 0.55 0.55 0.52 0.49
0.48 0.49 0.50 0.51 0.49 0.52 0.54 0.55 0.46 0.44 0.47 0.55 0.63 0.63 0.64 0.67 0.66 0.68 0.61 0.60 0.65 0.58 0.49 0.46 0.50 0.51 0.55 0.57 0.60 0.71 0.81 0.76 0.64 0.66 0.83 0.72 0.68 0.90 1.00 1.23 0.89 0.70 0.67 0.57 0.49 0.46 0.39 0.36 0.44 0.41 0.50 0.52 0.48 0.48 0.44 0.43 0.47 0.56 0.56 0.51 0.49 0.48 0.48
0.68 0.73 0.74 0.77 0.70 0.70 0.61 0.53 0.47 0.46 0.56 0.73 0.77 0.77 0.70 0.67 0.67 0.74 0.73 0.58 0.57 0.57 0.53 0.55 0.56 0.59 0.58 0.66 0.71 0.72 0.72 0.71 0.68 0.61 0.55 0.55 0.61 0.69 0.77 0.88 0.87 0.83 0.82 0.67 0.64 0.67 0.57 0.60 0.59 0.63 0.58 0.52 0.48 0.40 0.35 0.38 0.45 0.46 0.55 0.59 0.57 0.69 0.63
1.15 1.04 1.04 0.92 0.90 0.96 0.85 0.70 0.68 0.63 0.70 0.84 0.86 0.89 0.89 0.90 0.82 0.76 0.74 0.61 0.61 0.68 0.66 0.61 0.60 0.58 0.55 0.53 0.53 0.55 0.57 0.55 0.53 0.51 0.52 0.59 0.62 0.59 0.60 0.62 0.76 0.83 0.72 0.60 0.64 0.73 0.71 0.70 0.68 0.61 0.53 0.54 0.54 0.45 0.38 0.38 0.46 0.49 0.50 0.59 0.70 0.75 0.60
1.41 1.35 1.29 1.15 0.88 0.90 1.07 1.00 0.83 0.76 1.00 1.08 1.13 1.28 1.08 1.00 1.07 0.97 0.82 0.71 0.67 0.65 0.65 0.59 0.52 0.47 0.45 0.43 0.41 0.43 0.43 0.42 0.43 0.45 0.46 0.50 0.56 0.54 0.55 0.57 0.61 0.65 0.61 0.57 0.66 0.63 0.68 0.64 0.61 0.55 0.53 0.53 0.53 0.50 0.43 0.41 0.49 0.54 0.56 0.66 0.78 0.77 0.66
1.29 1.36 1.15 1.11 1.21 1.02 0.76 0.72 0.67 0.68 0.97 1.13 1.36 1.36 1.22 1.27 1.17 1.10 1.00 0.83 0.77 0.70 0.59 0.52 0.45 0.41 0.38 0.36 0.36 0.38 0.37 0.38 0.40 0.40 0.40 0.43 0.46 0.47 0.50 0.53 0.53 0.58 0.57 0.57 0.60 0.63 0.67 0.61 0.59 0.53 0.46 0.45 0.42 0.42 0.46 0.52 0.57 0.54 0.60 0.64 0.62 0.63 0.55
1.05 1.15 1.28 1.10 1.15 1.28 1.04 0.84 0.79 0.80 1.12 1.30 1.49 1.50 1.29 1.25 1.29 1.20 1.04 0.84 0.81 0.75 0.59 0.47 0.40 0.39 0.37 0.35 0.36 0.34 0.33 0.37 0.41 0.42 0.43 0.40 0.37 0.34 0.34 0.38 0.45 0.51 0.53 0.54 0.55 0.55 0.59 0.63 0.63 0.59 0.51 0.44 0.40 0.40 0.42 0.49 0.59 0.65 0.76 0.71 0.64 0.58 0.49
0.69 0.78 0.93 0.99 1.15 1.27 1.24 1.02 0.98 0.98 1.16 1.26 1.36 1.30 1.08 1.06 1.05 0.91 0.83 0.72 0.63 0.56 0.50 0.43 0.40 0.39 0.37 0.37 0.36 0.35 0.36 0.39 0.42 0.38 0.36 0.35 0.35 0.32 0.28 0.29 0.30 0.37 0.44 0.47 0.49 0.51 0.53 0.64 0.57 0.62 0.59 0.56 0.48 0.46 0.45 0.40 0.43 0.45 0.49 0.57 0.65 0.59 0.52
0.54 0.52 0.56 0.58 0.73 0.86 0.92 0.85 0.83 0.83 0.83 0.92 1.01 1.00 1.01 1.03 0.89 0.77 0.80 0.68 0.60 0.53 0.48 0.41 0.39 0.38 0.38 0.38 0.39 0.40 0.40 0.40 0.41 0.35 0.32 0.29 0.27 0.28 0.27 0.24 0.26 0.31 0.36 0.38 0.42 0.46 0.45 0.49 0.52 0.59 0.62 0.65 0.58 0.51 0.45 0.45 0.41 0.40 0.48 0.55 0.52 0.48 0.46
0.44 0.41 0.46 0.55 0.57 0.69 0.74 0.65 0.62 0.71 0.83 0.93 0.94 0.94 1.06 0.87 0.79 0.80 0.63 0.49 0.47 0.48 0.45 0.42 0.38 0.37 0.34 0.34 0.35 0.36 0.37 0.37 0.37 0.33 0.31 0.30 0.27 0.24 0.25 0.28 0.26 0.26 0.27 0.30 0.33 0.37 0.40 0.41 0.46 0.50 0.51 0.53 0.54 0.54 0.54 0.48 0.45 0.44 0.43 0.45 0.47 0.44 0.41
0.46 0.42 0.41 0.49 0.48 0.51 0.65 0.65 0.60 0.63 0.79 0.97 0.97 0.97 0.88 0.83 0.69 0.55 0.49 0.43 0.40 0.41 0.42 0.41 0.40 0.39 0.37 0.39 0.40 0.40 0.39 0.37 0.37 0.37 0.36 0.34 0.32 0.29 0.27 0.28 0.28 0.27 0.26 0.25 0.27 0.30 0.32 0.36 0.40 0.45 0.51 0.51 0.49 0.46 0.43 0.40 0.38 0.38 0.40 0.41 0.42 0.46 0.44